1 Minute Report
Date Time Wind Direction Wind Speed Wind Gust Wind Variable Altimeter Temperature Dewpoint Relative Humidity Visibility Ceiling Precip Present Weather Density Alt Wind Chill Heat Index
18/04/23 03:36 000 00 N/A N/A 30.41 35(F), 2(C) 28(F), -2(C) 75% 10 CLR N/A N/A N/A 35 F N/A 120
18/04/23 03:35 000 00 N/A N/A 30.41 35(F), 2(C) 27(F), -3(C) 69% 10 CLR N/A N/A N/A 35 F N/A 119
18/04/23 03:34 000 00 N/A N/A 30.41 35(F), 2(C) 27(F), -3(C) 69% 10 CLR N/A N/A N/A 35 F N/A 118
18/04/23 03:33 000 00 N/A N/A 30.41 35(F), 2(C) 26(F), -3(C) 69% 10 CLR N/A N/A N/A 35 F N/A 117
18/04/23 03:32 000 00 N/A N/A 30.41 35(F), 2(C) 26(F), -3(C) 69% 10 CLR N/A N/A N/A 35 F N/A 116
18/04/23 03:31 000 00 N/A N/A 30.41 35(F), 2(C) 25(F), -4(C) 64% 10 CLR N/A N/A N/A 35 F N/A 115
18/04/23 03:30 000 00 N/A N/A 30.41 35(F), 2(C) 25(F), -4(C) 64% 10 CLR N/A N/A N/A 35 F N/A 114
18/04/23 03:29 000 00 N/A N/A 30.41 35(F), 2(C) 25(F), -4(C) 64% 10 CLR N/A N/A N/A 35 F N/A 113
18/04/23 03:28 000 00 N/A N/A 30.41 35(F), 2(C) 25(F), -4(C) 64% 10 CLR N/A N/A N/A 35 F N/A 112
18/04/23 03:27 000 00 N/A N/A 30.41 35(F), 2(C) 25(F), -4(C) 64% 10 CLR N/A N/A N/A 35 F N/A 111
18/04/23 03:26 000 00 N/A N/A 30.41 35(F), 2(C) 25(F), -4(C) 64% 10 CLR N/A N/A N/A 35 F N/A 110
18/04/23 03:25 000 00 N/A N/A 30.40 35(F), 2(C) 25(F), -4(C) 64% 10 CLR N/A N/A N/A 35 F N/A 109
18/04/23 03:24 000 00 N/A N/A 30.40 35(F), 2(C) 25(F), -4(C) 64% 10 CLR N/A N/A N/A 35 F N/A 108
18/04/23 03:23 000 00 N/A N/A 30.40 35(F), 2(C) 25(F), -4(C) 64% 10 CLR N/A N/A N/A 35 F N/A 107
18/04/23 03:22 000 00 N/A N/A 30.40 35(F), 2(C) 25(F), -4(C) 64% 10 CLR N/A N/A N/A 35 F N/A 106
18/04/23 03:21 000 00 N/A N/A 30.40 35(F), 2(C) 25(F), -4(C) 64% 10 CLR N/A N/A N/A 35 F N/A 105
18/04/23 03:20 000 00 N/A N/A 30.40 35(F), 2(C) 25(F), -4(C) 64% 10 CLR N/A N/A N/A 35 F N/A 104
18/04/23 03:19 000 00 N/A N/A 30.40 35(F), 2(C) 25(F), -4(C) 64% 10 CLR N/A N/A N/A 35 F N/A 103
18/04/23 03:18 000 00 N/A N/A 30.40 35(F), 2(C) 25(F), -4(C) 64% 10 CLR N/A N/A N/A 35 F N/A 102
18/04/23 03:17 000 00 N/A N/A 30.40 35(F), 2(C) 26(F), -3(C) 69% 10 CLR N/A N/A N/A 35 F N/A 101
18/04/23 03:16 000 00 N/A N/A 30.40 35(F), 2(C) 26(F), -3(C) 69% 10 CLR N/A N/A N/A 35 F N/A 100
18/04/23 03:15 000 00 N/A N/A 30.40 35(F), 2(C) 27(F), -3(C) 69% 10 CLR N/A N/A N/A 35 F N/A 99
18/04/23 03:14 000 00 N/A N/A 30.40 35(F), 2(C) 27(F), -3(C) 69% 10 CLR N/A N/A N/A 35 F N/A 98
18/04/23 03:13 000 00 N/A N/A 30.40 35(F), 2(C) 27(F), -3(C) 69% 10 CLR N/A N/A N/A 35 F N/A 97
18/04/23 03:12 000 00 N/A N/A 30.40 35(F), 2(C) 27(F), -3(C) 69% 10 CLR N/A N/A N/A 35 F N/A 96
18/04/23 03:11 000 00 N/A N/A 30.40 35(F), 2(C) 27(F), -3(C) 69% 10 CLR N/A N/A N/A 35 F N/A 95
18/04/23 03:10 000 00 N/A N/A 30.40 35(F), 2(C) 27(F), -3(C) 69% 10 CLR N/A N/A N/A 35 F N/A 94
18/04/23 03:09 000 00 N/A N/A 30.40 35(F), 2(C) 27(F), -3(C) 69% 10 CLR N/A N/A N/A 35 F N/A 93
18/04/23 03:08 000 00 N/A N/A 30.40 35(F), 2(C) 27(F), -3(C) 69% 10 CLR N/A N/A N/A 35 F N/A 92
18/04/23 03:07 000 00 N/A N/A 30.40 35(F), 2(C) 27(F), -3(C) 69% 10 CLR N/A N/A N/A 35 F N/A 91
18/04/23 03:06 000 00 N/A N/A 30.40 35(F), 2(C) 27(F), -3(C) 69% 10 CLR N/A N/A N/A 35 F N/A 90
18/04/23 03:05 000 00 N/A N/A 30.40 35(F), 2(C) 27(F), -3(C) 69% 10 CLR N/A N/A N/A 35 F N/A 89
18/04/23 03:04 000 00 N/A N/A 30.40 35(F), 2(C) 27(F), -3(C) 69% 10 CLR N/A N/A N/A 35 F N/A 88
18/04/23 03:03 000 00 N/A N/A 30.40 35(F), 2(C) 28(F), -2(C) 75% 10 CLR N/A N/A N/A 35 F N/A 87
18/04/23 03:02 000 00 N/A N/A 30.40 35(F), 2(C) 28(F), -2(C) 75% 10 CLR N/A N/A N/A 35 F N/A 86
18/04/23 03:01 000 00 N/A N/A 30.40 35(F), 2(C) 27(F), -3(C) 69% 10 CLR N/A N/A N/A 35 F N/A 85
18/04/23 03:00 000 00 N/A N/A 30.40 35(F), 2(C) 27(F), -3(C) 69% 10 CLR N/A N/A N/A 35 F N/A 84
18/04/23 02:59 000 00 N/A N/A 30.40 35(F), 2(C) 27(F), -3(C) 69% 10 CLR N/A N/A N/A 35 F N/A 83
18/04/23 02:58 000 00 N/A N/A 30.40 35(F), 2(C) 27(F), -3(C) 69% 10 CLR N/A N/A N/A 35 F N/A 82
18/04/23 02:57 000 00 N/A N/A 30.40 35(F), 2(C) 27(F), -3(C) 69% 10 CLR N/A N/A N/A 35 F N/A 81
18/04/23 02:56 000 00 N/A N/A 30.40 35(F), 2(C) 27(F), -3(C) 69% 10 CLR N/A N/A N/A 35 F N/A 80
18/04/23 02:55 000 00 N/A N/A 30.40 35(F), 2(C) 27(F), -3(C) 69% 10 CLR N/A N/A N/A 35 F N/A 79
18/04/23 02:54 000 00 N/A N/A 30.40 35(F), 2(C) 27(F), -3(C) 69% 10 CLR N/A N/A N/A 35 F N/A 78
18/04/23 02:53 000 00 N/A N/A 30.40 35(F), 2(C) 27(F), -3(C) 69% 10 CLR N/A N/A N/A 35 F N/A 77
18/04/23 02:52 000 00 N/A N/A 30.40 36(F), 2(C) 27(F), -3(C) 69% 10 CLR N/A N/A N/A 36 F N/A 76
18/04/23 02:51 000 00 N/A N/A 30.40 36(F), 2(C) 27(F), -3(C) 69% 10 CLR N/A N/A N/A 36 F N/A 75
18/04/23 02:50 000 00 N/A N/A 30.41 37(F), 3(C) 27(F), -3(C) 65% 10 CLR N/A N/A N/A 37 F N/A 74
18/04/23 02:49 000 00 N/A N/A 30.41 37(F), 3(C) 27(F), -3(C) 65% 10 CLR N/A N/A N/A 37 F N/A 73
18/04/23 02:48 000 00 N/A N/A 30.41 37(F), 3(C) 28(F), -2(C) 70% 10 CLR N/A N/A N/A 37 F N/A 72
18/04/23 02:47 000 00 N/A N/A 30.41 37(F), 3(C) 28(F), -2(C) 70% 10 CLR N/A N/A N/A 37 F N/A 71
18/04/23 02:46 000 00 N/A N/A 30.41 37(F), 3(C) 29(F), -2(C) 70% 10 CLR N/A N/A N/A 37 F N/A 70
18/04/23 02:45 000 00 N/A N/A 30.41 37(F), 3(C) 30(F), -1(C) 75% 10 CLR N/A N/A N/A 37 F N/A 69
18/04/23 02:44 000 00 N/A N/A 30.41 37(F), 3(C) 30(F), -1(C) 75% 10 CLR N/A N/A N/A 37 F N/A 68
18/04/23 02:43 000 00 N/A N/A 30.41 37(F), 3(C) 31(F), -1(C) 75% 10 CLR N/A N/A N/A 37 F N/A 67
18/04/23 02:42 000 00 N/A N/A 30.41 37(F), 3(C) 31(F), -1(C) 75% 10 CLR N/A N/A N/A 37 F N/A 66
18/04/23 02:41 000 00 N/A N/A 30.41 37(F), 3(C) 31(F), -1(C) 75% 10 CLR N/A N/A N/A 37 F N/A 65
18/04/23 02:40 000 00 N/A N/A 30.41 37(F), 3(C) 30(F), -1(C) 75% 10 CLR N/A N/A N/A 37 F N/A 64
18/04/23 02:39 000 00 N/A N/A 30.41 37(F), 3(C) 30(F), -1(C) 75% 10 CLR N/A N/A N/A 37 F N/A 63
18/04/23 02:38 000 00 N/A N/A 30.41 37(F), 3(C) 29(F), -2(C) 70% 10 CLR N/A N/A N/A 37 F N/A 62
18/04/23 02:37 000 00 N/A N/A 30.41 37(F), 3(C) 29(F), -2(C) 70% 10 CLR N/A N/A N/A 37 F N/A 61
18/04/23 02:36 000 00 N/A N/A 30.41 37(F), 3(C) 28(F), -2(C) 70% 10 CLR N/A N/A N/A 37 F N/A 60
18/04/23 02:35 000 00 N/A N/A 30.41 37(F), 3(C) 27(F), -3(C) 65% 10 CLR N/A N/A N/A 37 F N/A 59
18/04/23 02:34 000 00 N/A N/A 30.41 37(F), 3(C) 27(F), -3(C) 65% 10 CLR N/A N/A N/A 37 F N/A 58
18/04/23 02:33 000 00 N/A N/A 30.41 37(F), 3(C) 27(F), -3(C) 65% 10 CLR N/A N/A N/A 37 F N/A 57
18/04/23 02:32 000 00 N/A N/A 30.41 37(F), 3(C) 27(F), -3(C) 65% 10 CLR N/A N/A N/A 37 F N/A 56
18/04/23 02:31 000 00 N/A N/A 30.41 37(F), 3(C) 27(F), -3(C) 65% 10 CLR N/A N/A N/A 37 F N/A 55
18/04/23 02:30 000 00 N/A N/A 30.41 37(F), 3(C) 28(F), -2(C) 70% 10 CLR N/A N/A N/A 37 F N/A 54
18/04/23 02:29 000 00 N/A N/A 30.41 37(F), 3(C) 28(F), -2(C) 70% 10 CLR N/A N/A N/A 37 F N/A 53
18/04/23 02:28 000 00 N/A N/A 30.41 37(F), 3(C) 29(F), -2(C) 70% 10 CLR N/A N/A N/A 37 F N/A 52
18/04/23 02:27 000 00 N/A N/A 30.41 37(F), 3(C) 29(F), -2(C) 70% 10 CLR N/A N/A N/A 37 F N/A 51
18/04/23 02:26 000 00 N/A N/A 30.41 37(F), 3(C) 30(F), -1(C) 75% 10 CLR N/A N/A N/A 37 F N/A 50
18/04/23 02:25 000 00 N/A N/A 30.41 37(F), 3(C) 30(F), -1(C) 75% 10 CLR N/A N/A N/A 37 F N/A 49
18/04/23 02:24 000 00 N/A N/A 30.41 37(F), 3(C) 30(F), -1(C) 75% 10 CLR N/A N/A N/A 37 F N/A 48
18/04/23 02:23 000 00 N/A N/A 30.41 37(F), 3(C) 30(F), -1(C) 75% 10 CLR N/A N/A N/A 37 F N/A 47
18/04/23 02:22 000 00 N/A N/A 30.41 37(F), 3(C) 30(F), -1(C) 75% 10 CLR N/A N/A N/A 37 F N/A 46
18/04/23 02:21 000 00 N/A N/A 30.41 37(F), 3(C) 30(F), -1(C) 75% 10 CLR N/A N/A N/A 37 F N/A 45
18/04/23 02:20 000 00 N/A N/A 30.41 37(F), 3(C) 30(F), -1(C) 75% 10 CLR N/A N/A N/A 37 F N/A 44
18/04/23 02:19 000 00 N/A N/A 30.41 37(F), 3(C) 30(F), -1(C) 75% 10 CLR N/A N/A N/A 37 F N/A 43
18/04/23 02:18 000 00 N/A N/A 30.41 37(F), 3(C) 30(F), -1(C) 75% 10 CLR N/A N/A N/A 37 F N/A 42
18/04/23 02:17 000 00 N/A N/A 30.41 38(F), 3(C) 30(F), -1(C) 75% 10 CLR N/A N/A N/A 38 F N/A 41
18/04/23 02:16 000 00 N/A N/A 30.41 38(F), 3(C) 30(F), -1(C) 75% 10 CLR N/A N/A N/A 38 F N/A 40
18/04/23 02:15 000 00 N/A N/A 30.41 38(F), 3(C) 29(F), -2(C) 70% 10 CLR N/A N/A N/A 38 F N/A 39
18/04/23 02:14 000 00 N/A N/A 30.41 38(F), 3(C) 29(F), -2(C) 70% 10 CLR N/A N/A N/A 38 F N/A 38
18/04/23 02:13 000 00 N/A N/A 30.41 39(F), 4(C) 28(F), -2(C) 65% 10 CLR N/A N/A N/A 39 F N/A 37
18/04/23 02:12 000 00 N/A N/A 30.41 39(F), 4(C) 27(F), -3(C) 60% 10 CLR N/A N/A N/A 39 F N/A 36
18/04/23 02:11 000 00 N/A N/A 30.41 39(F), 4(C) 25(F), -4(C) 56% 10 CLR N/A N/A N/A 39 F N/A 35
18/04/23 02:10 000 00 N/A N/A 30.41 39(F), 4(C) 23(F), -5(C) 52% 10 CLR N/A N/A N/A 39 F N/A 34
18/04/23 02:09 000 00 N/A N/A 30.41 39(F), 4(C) 23(F), -5(C) 52% 10 CLR N/A N/A N/A 39 F N/A 33
18/04/23 02:08 000 00 N/A N/A 30.41 39(F), 4(C) 23(F), -5(C) 52% 10 CLR N/A N/A N/A 39 F N/A 32
18/04/23 02:07 000 00 N/A N/A 30.41 39(F), 4(C) 22(F), -6(C) 48% 10 CLR N/A N/A N/A 39 F N/A 31
18/04/23 02:06 000 00 N/A N/A 30.41 39(F), 4(C) 22(F), -6(C) 48% 10 CLR N/A N/A N/A 39 F N/A 30
18/04/23 02:05 000 00 N/A N/A 30.41 39(F), 4(C) 22(F), -6(C) 48% 10 CLR N/A N/A N/A 39 F N/A 29
18/04/23 02:04 000 00 N/A N/A 30.41 39(F), 4(C) 22(F), -6(C) 48% 10 CLR N/A N/A N/A 39 F N/A 28
18/04/23 02:03 000 00 N/A N/A 30.41 39(F), 4(C) 22(F), -6(C) 48% 10 CLR N/A N/A N/A 39 F N/A 27
18/04/23 02:02 000 00 N/A N/A 30.41 40(F), 4(C) 22(F), -6(C) 48% 10 CLR N/A N/A N/A 40 F N/A 26
18/04/23 02:01 000 00 N/A N/A 30.41 40(F), 4(C) 22(F), -6(C) 48% 10 CLR N/A N/A N/A 40 F N/A 25
18/04/23 02:00 000 00 N/A N/A 30.40 40(F), 4(C) 22(F), -6(C) 48% 10 CLR N/A N/A N/A 40 F N/A 24
18/04/23 01:59 000 00 N/A N/A 30.40 40(F), 4(C) 22(F), -6(C) 48% 10 CLR N/A N/A N/A 40 F N/A 23
18/04/23 01:58 000 00 N/A N/A 30.40 40(F), 4(C) 22(F), -6(C) 48% 10 CLR N/A N/A N/A 40 F N/A 22
18/04/23 01:57 000 00 N/A N/A 30.40 40(F), 4(C) 22(F), -6(C) 48% 10 CLR N/A N/A N/A 40 F N/A 21
18/04/23 01:56 000 00 N/A N/A 30.40 40(F), 4(C) 22(F), -6(C) 48% 10 CLR N/A N/A N/A 40 F N/A 20
18/04/23 01:55 000 00 N/A N/A 30.40 39(F), 4(C) 24(F), -4(C) 56% 10 CLR N/A N/A N/A 39 F N/A 19
18/04/23 01:54 000 00 N/A N/A 30.40 39(F), 4(C) 24(F), -4(C) 56% 10 CLR N/A N/A N/A 39 F N/A 18
18/04/23 01:53 000 00 N/A N/A 30.40 39(F), 4(C) 25(F), -4(C) 56% 10 CLR N/A N/A N/A 39 F N/A 17
18/04/23 01:52 000 00 N/A N/A 30.40 39(F), 4(C) 26(F), -3(C) 60% 10 CLR N/A N/A N/A 39 F N/A 16
18/04/23 01:51 000 00 N/A N/A 30.40 40(F), 4(C) 26(F), -3(C) 60% 10 CLR N/A N/A N/A 40 F N/A 15
18/04/23 01:50 000 00 N/A N/A 30.40 40(F), 4(C) 25(F), -4(C) 56% 10 CLR N/A N/A N/A 40 F N/A 14
18/04/23 01:49 000 00 N/A N/A 30.40 40(F), 4(C) 25(F), -4(C) 56% 10 CLR N/A N/A N/A 40 F N/A 13
18/04/23 01:48 000 00 N/A N/A 30.40 40(F), 4(C) 23(F), -5(C) 52% 10 CLR N/A N/A N/A 40 F N/A 12
18/04/23 01:47 000 00 N/A N/A 30.40 40(F), 4(C) 22(F), -6(C) 48% 10 CLR N/A N/A N/A 40 F N/A 11
18/04/23 01:46 000 00 N/A N/A 30.40 41(F), 5(C) 21(F), -6(C) 45% 10 CLR N/A N/A N/A 41 F N/A 10
18/04/23 01:45 000 00 N/A N/A 30.40 41(F), 5(C) 21(F), -6(C) 45% 10 CLR N/A N/A N/A 41 F N/A 9
18/04/23 01:44 000 00 N/A N/A 30.40 41(F), 5(C) 21(F), -6(C) 45% 10 CLR N/A N/A N/A 41 F N/A 8
18/04/23 01:43 000 00 N/A N/A 30.40 41(F), 5(C) 20(F), -7(C) 41% 10 CLR N/A N/A N/A 41 F N/A 7
18/04/23 01:42 000 00 N/A N/A 30.40 42(F), 6(C) 21(F), -6(C) 42% 10 CLR N/A N/A N/A 42 F N/A 6
18/04/23 01:41 000 00 N/A N/A 30.40 42(F), 6(C) 21(F), -6(C) 42% 10 CLR N/A N/A N/A 42 F N/A 5
18/04/23 01:40 000 00 N/A N/A 30.40 42(F), 6(C) 21(F), -6(C) 42% 10 CLR N/A N/A N/A 42 F N/A 4
18/04/23 01:39 000 00 N/A N/A 30.40 42(F), 6(C) 21(F), -6(C) 42% 10 CLR N/A N/A N/A 42 F N/A 3
18/04/23 01:38 000 00 N/A N/A 30.40 42(F), 6(C) 21(F), -6(C) 42% 10 CLR N/A N/A N/A 42 F N/A 2
18/04/23 01:37 000 00 N/A N/A 30.40 42(F), 6(C) 20(F), -7(C) 39% 10 CLR N/A N/A N/A 42 F N/A 1
18/04/23 01:36 000 00 N/A N/A 30.40 41(F), 5(C) 20(F), -7(C) 41% 10 CLR N/A N/A N/A 41 F N/A 0